Pagina principală
METAR-TAF:

METAR-TAF

Aeroporturi :

Ontario Municipal Airport

Ontario, Oregon, Statele Unite ale Americii

Latitudine: 44-01-10N, longitudine: 117-00-35W, elevație: 667 m

Observații meteo curente

Raportul a fost făcut în urmă cu 36 de minute, la 02:53 UTC
Vânt 5 kt de la Nord
Temperatură 27°C
Umiditate 30%
Presiune 1013 hPa
Vizibilitate: 16.1 km
Cer senin

METAR: KONO 060253Z AUTO 36005KT 10SM CLR 27/08 A2990 RMK AO2 SLP108 T02720078 55003

Ora: 21:29 (03:29 UTC)


TAF: lipsă

Observații și prognoze meteo pentru peste 4.000 de aeroporturi (rapoarte METAR și TAF).

Stațiile disponibile sunt reprezentate pe hartă prin puncte galbene și roșii.

Țineți indicatorul mouse-ului pe punctul dorit pentru a vedea denumirea stației.

Apoi, faceți clic pentru a vedea observațiile și prognozele meteorologice.

Pentru a schimba harta: Pentru mărire, faceți clic pe butoanele verzi cu cruce neagră; pentru micșorare, pe butonul verde cu o liniuță; pentru hărți învecinate, pe săgețile verzi.


METAR-TAF: